Terug naar catalogus

FLOCK 4G 4

ActiefWetenschapSSO
NORAD 62659·PAYLOAD·🇺🇸 United States

Gelanceerd Jan 14, 2025 vanaf Vandenberg Space Force Base

Loading…

Volgende Passages (komende 24 uur)

TLE

VersSource: Space-Track

Epoch: Sep 14, 2026, 04:19 UTC

1 62659U 25009BC  26257.18051479  .00031386  00000-0  89180-3 0  9991
2 62659  97.3886 338.4772 0002479  12.0693 348.0609 15.36114192150142

Volg FLOCK 4G 4 in realtime met AllMySat

Download on the App Store